Weather History for KCMI - September, 2013

Change the Weather History Date:

Sunday, September 15, 2013

  Actual Average Record
Temperature  
Mean Temperature 64 °F 66 °F  
Max Temperature 79 °F 79 °F 89 °F (2010)
Min Temperature 48 °F 53 °F 37 °F (2007)
Degree Days  
Heating Degree Days 1 2  
Month to date heating degree days 8 15  
Since 1 July heating degree days 23 24  
Cooling Degree Days 0 3  
Month to date cooling degree days 125 66  
Year to date cooling degree days 978 893  
Growing Degree Days 12 (Base 50)    
Moisture  
Dew Point 51 °F    
Average Humidity 65    
Maximum Humidity 93    
Minimum Humidity 36    
Precipitation  
Precipitation 0.03 in 0.10 in 0.74 in (2014)
Month to date precipitation 0.07 1.83  
Year to date precipitation 24.28 29.11  
Sea Level Pressure  
Sea Level Pressure 30.07 in    
Wind  
Wind Speed 6 mph (SSW)    
Max Wind Speed 16 mph    
Max Gust Speed 23 mph    
Visibility 10 miles    
Events Rain    
T = Trace of Precipitation, MM = Missing Value Source: NWS Daily Summary

Daily Weather History Graph

Daily Weather History Graph

Search for Another Location

Airport or City:

Trip Planner

Search our weather history database for the weather conditions in past years. The results will help you decide how hot, cold, wet, or windy it might be!

Date:

Astronomy

Sep. 15, 2013 Rise Set
Actual Time 6:34 AM CDT 7:01 PM CDT
Civil Twilight 6:07 AM CDT 7:28 PM CDT
Nautical Twilight 5:35 AM CDT 8:00 PM CDT
Astronomical Twilight 5:02 AM CDT 8:33 PM CDT
Moon 4:28 PM CDT (9/15) 2:12 AM CDT (9/15)
Length of Visible Light 13h 21m
Length of Day
12h 27m
Waxing Gibbous, 82% of the Moon is Illuminated
Sep 15
Waxing Gibbous
Sep 19
Full
Sep 26
Last Quarter
Oct 4
New
Oct 11
First Quarter

Hourly Weather History & Observations

Time (CDT) Temp. Dew Point Humidity Pressure Visibility Wind Dir Wind Speed Gust Speed Precip Events Conditions
12:53 AM 50.0 °F 44.1 °F 80% 30.08 in 10.0 mi South 5.8 mph - N/A   Clear
1:53 AM 53.1 °F 45.0 °F 74% 30.07 in 10.0 mi SSE 5.8 mph - N/A   Clear
2:53 AM 54.0 °F 45.0 °F 72% 30.05 in 10.0 mi South 4.6 mph - N/A   Clear
3:53 AM 54.0 °F 46.0 °F 75% 30.06 in 10.0 mi South 4.6 mph - N/A   Clear
4:53 AM 52.0 °F 46.0 °F 80% 30.07 in 10.0 mi Calm Calm - N/A   Clear
5:53 AM 51.1 °F 46.0 °F 83% 30.08 in 10.0 mi SSE 3.5 mph - N/A   Clear
6:53 AM 48.0 °F 44.1 °F 86% 30.10 in 10.0 mi SSE 3.5 mph - N/A   Clear
7:53 AM 55.9 °F 48.0 °F 75% 30.09 in 10.0 mi SSE 3.5 mph - N/A   Clear
8:53 AM 63.0 °F 48.0 °F 58% 30.10 in 10.0 mi SSW 8.1 mph - N/A   Clear
9:53 AM 66.0 °F 48.0 °F 52% 30.09 in 10.0 mi SSW 10.4 mph - N/A   Partly Cloudy
10:53 AM 70.0 °F 48.0 °F 46% 30.08 in 10.0 mi SSW 11.5 mph 18.4 mph N/A   Partly Cloudy
11:53 AM 73.0 °F 48.9 °F 42% 30.06 in 10.0 mi SSW 8.1 mph 17.3 mph N/A   Clear
12:53 PM 75.9 °F 48.0 °F 37% 30.04 in 10.0 mi SSW 9.2 mph - N/A   Scattered Clouds
1:53 PM 77.0 °F 48.9 °F 37% 30.02 in 10.0 mi SSW 9.2 mph - N/A   Mostly Cloudy
2:53 PM 75.9 °F 48.0 °F 37% 30.01 in 10.0 mi SSW 11.5 mph 18.4 mph N/A   Mostly Cloudy
3:53 PM 75.9 °F 48.9 °F 38% 30.00 in 10.0 mi SSW 10.4 mph 19.6 mph N/A   Overcast
4:53 PM 70.0 °F 54.0 °F 57% 30.01 in 10.0 mi SW 4.6 mph - 0.00 in Rain Light Rain
5:53 PM 71.1 °F 55.0 °F 57% 30.02 in 10.0 mi SSW 4.6 mph - 0.00 in Rain Light Rain
6:53 PM 70.0 °F 55.0 °F 59% 30.04 in 10.0 mi NNW 3.5 mph - 0.00 in   Overcast
7:53 PM 68.0 °F 59.0 °F 73% 30.05 in 10.0 mi North 3.5 mph - N/A   Overcast
8:53 PM 64.9 °F 61.0 °F 87% 30.08 in 10.0 mi North 5.8 mph - 0.00 in Rain Light Rain
9:38 PM 62.6 °F 60.8 °F 94% 30.09 in 9.0 mi North 5.8 mph - 0.03 in Rain Light Rain
9:53 PM 63.0 °F 61.0 °F 93% 30.09 in 9.0 mi North 5.8 mph - 0.03 in   Overcast
10:53 PM 62.1 °F 60.1 °F 93% 30.10 in 8.0 mi North 5.8 mph - 0.00 in   Overcast
11:48 PM 62.6 °F 60.8 °F 94% 30.11 in 8.0 mi Variable 6.9 mph - 0.00 in   Overcast
11:53 PM 62.1 °F 60.1 °F 93% 30.11 in 9.0 mi North 6.9 mph - 0.00 in   Overcast